time, Switch, Flow(0), Analog(2)
yyyy/mm/dd HH:MM:SS.fff, True=FILTERED|False=TOTAL, L/min, V
2023/07/11 05:00:01.722, True, 5.054, 0.120623
2023/07/11 05:00:02.226, True, 4.648, 0.119631
2023/07/11 05:00:02.730, True, 4.636, 0.119478
2023/07/11 05:00:03.226, True, 4.380, 0.121233
2023/07/11 05:00:03.730, True, 4.311, 0.119326
2023/07/11 05:00:04.234, True, 3.653, 0.118410
2023/07/11 05:00:04.730, True, 3.700, 0.121157
2023/07/11 05:00:05.234, True, 3.648, 0.118868
2023/07/11 05:00:05.738, True, 3.647, 0.119097
2023/07/11 05:00:06.233, True, 3.370, 0.119707
2023/07/11 05:00:06.737, True, 3.649, 0.119936
2023/07/11 05:00:07.242, True, 3.648, 0.118791
2023/07/11 05:00:07.738, True, 3.705, 0.121233
2023/07/11 05:00:08.241, True, 3.317, 0.120851
2023/07/11 05:00:08.745, True, 3.647, 0.120317
2023/07/11 05:00:09.241, True, 3.376, 0.118181
2023/07/11 05:00:09.745, True, 3.310, 0.119478
2023/07/11 05:00:10.249, True, 3.647, 0.120394
2023/07/11 05:00:10.754, True, 3.317, 0.119936
2023/07/11 05:00:11.249, True, 3.369, 0.119097
2023/07/11 05:00:11.753, True, 3.647, 0.120394
2023/07/11 05:00:12.249, True, 3.371, 0.116732
2023/07/11 05:00:12.754, True, 3.651, 0.119097
2023/07/11 05:00:13.257, True, 3.643, 0.120546
2023/07/11 05:00:13.762, True, 3.647, 0.119478
2023/07/11 05:00:14.258, True, 3.369, 0.119249
2023/07/11 05:00:14.762, True, 3.654, 0.117342
2023/07/11 05:00:15.265, True, 3.641, 0.119860
2023/07/11 05:00:15.761, True, 3.710, 0.119097
2023/07/11 05:00:16.266, True, 3.646, 0.121080
2023/07/11 05:00:16.770, True, 3.652, 0.120470
2023/07/11 05:00:17.265, True, 3.364, 0.118868
2023/07/11 05:00:17.770, True, 3.649, 0.120928
2023/07/11 05:00:18.274, True, 3.653, 0.119631
2023/07/11 05:00:18.769, True, 3.365, 0.118563
2023/07/11 05:00:19.274, True, 3.648, 0.120470
2023/07/11 05:00:19.778, True, 3.647, 0.120928
2023/07/11 05:00:20.274, True, 3.711, 0.117876
2023/07/11 05:00:20.778, True, 3.311, 0.121920
2023/07/11 05:00:21.282, True, 3.648, 0.119020
2023/07/11 05:00:21.777, True, 3.370, 0.120928
2023/07/11 05:00:22.282, True, 3.647, 0.121309
2023/07/11 05:00:22.786, True, 3.651, 0.119783
2023/07/11 05:00:23.289, True, 3.644, 0.123751
2023/07/11 05:00:23.786, True, 3.371, 0.121538
2023/07/11 05:00:24.290, True, 3.648, 0.122454
2023/07/11 05:00:24.786, True, 3.708, 0.121843
2023/07/11 05:00:25.289, True, 3.313, 0.122454
2023/07/11 05:00:25.794, True, 3.321, 0.122377
2023/07/11 05:00:26.289, True, 3.364, 0.123751
2023/07/11 05:00:26.794, True, 3.652, 0.123522
2023/07/11 05:00:27.298, True, 3.643, 0.122225
2023/07/11 05:00:27.794, True, 3.370, 0.122606
2023/07/11 05:00:28.298, True, 3.646, 0.123445
2023/07/11 05:00:28.802, True, 3.316, 0.124132
2023/07/11 05:00:29.298, True, 3.369, 0.125048
2023/07/11 05:00:29.802, True, 3.648, 0.123369
2023/07/11 05:00:30.306, True, 3.647, 0.123445
2023/07/11 05:00:30.802, True, 3.369, 0.125124
2023/07/11 05:00:31.306, True, 3.648, 0.123217
2023/07/11 05:00:31.810, True, 3.648, 0.123369
2023/07/11 05:00:32.305, True, 3.369, 0.125124
2023/07/11 05:00:32.810, True, 3.648, 0.125429
2023/07/11 05:00:33.314, True, 3.322, 0.124666
2023/07/11 05:00:33.810, True, 3.365, 0.126421
2023/07/11 05:00:34.314, True, 3.651, 0.124514
2023/07/11 05:00:34.818, True, 3.311, 0.123980
2023/07/11 05:00:35.313, True, 3.706, 0.126192
2023/07/11 05:00:35.818, True, 3.648, 0.124514
2023/07/11 05:00:36.322, True, 3.316, 0.123903
2023/07/11 05:00:36.817, True, 3.706, 0.125353
2023/07/11 05:00:37.322, True, 3.647, 0.125582
2023/07/11 05:00:37.826, True, 3.316, 0.123751
2023/07/11 05:00:38.322, True, 3.707, 0.125963
2023/07/11 05:00:38.826, True, 3.316, 0.125429
2023/07/11 05:00:39.330, True, 3.647, 0.125353
2023/07/11 05:00:39.825, True, 3.370, 0.124514
2023/07/11 05:00:40.330, True, 3.648, 0.124971
2023/07/11 05:00:40.834, True, 3.647, 0.126345
2023/07/11 05:00:41.330, True, 3.707, 0.123903
2023/07/11 05:00:41.834, True, 3.320, 0.121767
2023/07/11 05:00:42.338, True, 3.643, 0.128328
2023/07/11 05:00:42.834, True, 3.370, 0.126421
2023/07/11 05:00:43.338, True, 2.984, 0.125887
2023/07/11 05:00:43.842, True, 3.653, 0.122988
2023/07/11 05:00:44.338, True, 3.364, 0.125505
2023/07/11 05:00:44.842, True, 3.317, 0.124743
2023/07/11 05:00:45.346, True, 3.316, 0.125124
2023/07/11 05:00:45.850, True, 3.647, 0.125048
2023/07/11 05:00:46.346, True, 3.369, 0.123064
2023/07/11 05:00:46.850, True, 3.316, 0.122911
2023/07/11 05:00:47.346, True, 3.707, 0.124132
2023/07/11 05:00:47.850, True, 3.316, 0.123369
2023/07/11 05:00:48.354, True, 3.647, 0.123598
2023/07/11 05:00:48.850, True, 3.369, 0.124056
2023/07/11 05:00:49.354, True, 3.316, 0.126650
2023/07/11 05:00:49.858, True, 3.316, 0.126726
2023/07/11 05:00:50.354, True, 3.369, 0.124361
2023/07/11 05:00:50.857, True, 3.648, 0.124590
2023/07/11 05:00:51.362, True, 3.647, 0.126574
2023/07/11 05:00:51.866, True, 3.649, 0.123980
2023/07/11 05:00:52.361, True, 3.368, 0.125353
2023/07/11 05:00:52.866, True, 3.648, 0.123980
2023/07/11 05:00:53.370, True, 3.647, 0.125277
2023/07/11 05:00:53.866, True, 3.370, 0.126192
2023/07/11 05:00:54.370, True, 3.646, 0.124590
2023/07/11 05:00:54.873, True, 3.317, 0.125429
2023/07/11 05:00:55.370, True, 3.370, 0.124361
2023/07/11 05:00:55.874, True, 3.315, 0.124590
2023/07/11 05:00:56.378, True, 3.321, 0.124743
2023/07/11 05:00:56.873, True, 3.701, 0.124819
2023/07/11 05:00:57.378, True, 3.317, 0.123293
2023/07/11 05:00:57.881, True, 3.646, 0.124056
2023/07/11 05:00:58.378, True, 3.708, 0.125048
2023/07/11 05:00:58.882, True, 3.646, 0.124971
2023/07/11 05:00:59.386, True, 3.316, 0.123827
2023/07/11 05:00:59.882, True, 3.707, 0.124285
2023/07/11 05:01:00.386, True, 3.316, 0.123751
2023/07/11 05:01:00.882, True, 3.369, 0.122835
2023/07/11 05:01:01.386, True, 3.321, 0.123751
2023/07/11 05:01:01.889, True, 3.318, 0.124666
2023/07/11 05:01:02.386, True, 3.362, 0.124743
2023/07/11 05:01:02.890, True, 3.648, 0.123751
2023/07/11 05:01:03.394, True, 3.647, 0.123827
2023/07/11 05:01:03.898, True, 3.316, 0.121691
2023/07/11 05:01:04.394, True, 3.369, 0.123598
2023/07/11 05:01:04.898, True, 3.648, 0.123522
2023/07/11 05:01:05.402, True, 3.316, 0.122072
2023/07/11 05:01:05.905, True, 3.654, 0.125048
2023/07/11 05:01:06.402, True, 3.701, 0.121691
2023/07/11 05:01:06.906, True, 3.316, 0.124819
2023/07/11 05:01:07.410, True, 3.648, 0.122377
2023/07/11 05:01:07.906, True, 3.373, 0.123369
2023/07/11 05:01:08.410, True, 3.312, 0.122454
2023/07/11 05:01:08.914, True, 3.648, 0.122148
2023/07/11 05:01:09.410, True, 3.707, 0.124514
2023/07/11 05:01:09.914, True, 3.648, 0.123522
2023/07/11 05:01:10.418, True, 3.319, 0.122454
2023/07/11 05:01:10.913, True, 3.366, 0.124361
2023/07/11 05:01:11.417, True, 3.314, 0.122454
2023/07/11 05:01:11.922, True, 3.652, 0.123980
2023/07/11 05:01:12.418, True, 3.704, 0.124437
2023/07/11 05:01:12.922, True, 3.316, 0.123064
2023/07/11 05:01:13.425, True, 3.648, 0.124208
2023/07/11 05:01:13.929, True, 3.314, 0.124132
2023/07/11 05:01:14.425, True, 3.706, 0.123674
2023/07/11 05:01:14.929, True, 3.318, 0.122683
2023/07/11 05:01:15.426, True, 3.707, 0.123598
2023/07/11 05:01:15.929, True, 3.313, 0.123751
2023/07/11 05:01:16.434, True, 3.651, 0.122606
2023/07/11 05:01:16.937, True, 3.313, 0.124132
2023/07/11 05:01:17.433, True, 3.707, 0.124895
2023/07/11 05:01:17.938, True, 3.318, 0.126040
2023/07/11 05:01:18.434, True, 3.707, 0.124361
2023/07/11 05:01:18.937, True, 3.644, 0.123674
2023/07/11 05:01:19.441, True, 3.653, 0.121767
2023/07/11 05:01:19.945, True, 3.643, 0.123445
2023/07/11 05:01:20.441, True, 3.370, 0.121843
2023/07/11 05:01:20.946, True, 3.648, 0.124743
2023/07/11 05:01:21.449, True, 3.647, 0.120089
2023/07/11 05:01:21.945, True, 3.369, 0.121157
2023/07/11 05:01:22.450, True, 3.648, 0.121691
2023/07/11 05:01:22.954, True, 3.316, 0.122606
2023/07/11 05:01:23.450, True, 3.370, 0.126726
2023/07/11 05:01:23.953, True, 3.648, 0.123598
2023/07/11 05:01:24.450, True, 3.707, 0.123217
2023/07/11 05:01:24.954, True, 3.648, 0.122911
2023/07/11 05:01:25.458, True, 3.316, 0.123827
2023/07/11 05:01:25.961, True, 3.648, 0.121386
2023/07/11 05:01:26.458, True, 3.705, 0.124132
2023/07/11 05:01:26.961, True, 3.322, 0.121538
2023/07/11 05:01:27.466, True, 3.642, 0.122377
2023/07/11 05:01:27.961, True, 3.370, 0.122988
2023/07/11 05:01:28.466, True, 3.647, 0.124514
2023/07/11 05:01:28.970, True, 3.648, 0.122835
2023/07/11 05:01:29.466, True, 3.373, 0.122072
2023/07/11 05:01:29.970, True, 3.313, 0.123369
2023/07/11 05:01:30.474, True, 3.647, 0.122911
2023/07/11 05:01:30.970, True, 3.370, 0.123445
2023/07/11 05:01:31.474, True, 3.316, 0.125200
2023/07/11 05:01:31.978, True, 3.648, 0.123598
2023/07/11 05:01:32.474, True, 3.369, 0.122377
2023/07/11 05:01:32.978, True, 3.648, 0.122911
2023/07/11 05:01:33.481, True, 3.647, 0.121233
2023/07/11 05:01:33.978, True, 3.370, 0.122911
2023/07/11 05:01:34.482, True, 3.648, 0.122377
2023/07/11 05:01:34.985, True, 3.316, 0.122759
2023/07/11 05:01:35.490, True, 3.316, 0.122606
2023/07/11 05:01:35.986, True, 3.707, 0.124208
2023/07/11 05:01:36.489, True, 3.316, 0.122683
2023/07/11 05:01:36.985, True, 3.369, 0.124208
2023/07/11 05:01:37.490, True, 3.651, 0.124132
2023/07/11 05:01:37.993, True, 3.314, 0.122606
2023/07/11 05:01:38.489, True, 3.706, 0.120241
2023/07/11 05:01:38.994, True, 3.316, 0.123140
2023/07/11 05:01:39.497, True, 3.648, 0.121920
2023/07/11 05:01:40.002, True, 3.316, 0.121767
2023/07/11 05:01:40.497, True, 3.707, 0.120928
2023/07/11 05:01:41.001, True, 3.647, 0.124208
2023/07/11 05:01:41.506, True, 3.649, 0.122072
2023/07/11 05:01:42.010, True, 3.315, 0.120546
2023/07/11 05:01:42.506, True, 3.706, 0.123598
2023/07/11 05:01:43.010, True, 3.655, 0.122759
2023/07/11 05:01:43.506, True, 3.367, 0.124590
2023/07/11 05:01:44.010, True, 3.311, 0.122530
2023/07/11 05:01:44.514, True, 3.317, 0.122911
2023/07/11 05:01:45.010, True, 3.714, 0.123369
2023/07/11 05:01:45.514, True, 3.640, 0.123522
2023/07/11 05:01:46.018, True, 3.321, 0.121386
2023/07/11 05:01:46.522, True, 3.644, 0.124666
2023/07/11 05:01:47.018, True, 3.373, 0.122606
2023/07/11 05:01:47.522, True, 3.643, 0.121843
2023/07/11 05:01:48.018, True, 3.371, 0.122911
2023/07/11 05:01:48.522, True, 3.317, 0.123217
2023/07/11 05:01:49.026, True, 3.646, 0.120851
2023/07/11 05:01:49.530, True, 3.316, 0.121996
2023/07/11 05:01:50.026, True, 3.705, 0.123064
2023/07/11 05:01:50.530, True, 3.318, 0.121614
2023/07/11 05:01:51.034, True, 3.645, 0.122988
2023/07/11 05:01:51.530, True, 3.369, 0.123217
2023/07/11 05:01:52.034, True, 3.319, 0.120623
2023/07/11 05:01:52.537, True, 3.319, 0.121691
2023/07/11 05:01:53.034, True, 3.027, 0.121538
2023/07/11 05:01:53.538, True, 3.316, 0.121080
2023/07/11 05:01:54.041, True, 3.647, 0.121614
2023/07/11 05:01:54.538, True, 3.370, 0.123293
2023/07/11 05:01:55.041, True, 3.316, 0.121996
2023/07/11 05:01:55.546, True, 3.647, 0.121004
2023/07/11 05:01:56.050, True, 3.316, 0.124132
2023/07/11 05:01:56.545, True, 3.709, 0.121233
2023/07/11 05:01:57.050, True, 3.316, 0.123751
2023/07/11 05:01:57.546, True, 3.704, 0.123064
2023/07/11 05:01:58.050, True, 3.319, 0.120241
2023/07/11 05:01:58.554, True, 3.643, 0.123064
2023/07/11 05:01:59.058, True, 3.648, 0.121920
2023/07/11 05:01:59.554, True, 3.372, 0.120623
2023/07/11 05:02:00.058, True, 3.652, 0.123445
2023/07/11 05:02:00.562, True, 3.640, 0.120241
2023/07/11 05:02:01.058, True, 3.369, 0.122072
2023/07/11 05:02:01.562, True, 3.316, 0.122988
2023/07/11 05:02:02.066, True, 3.316, 0.122835
2023/07/11 05:02:02.561, True, 3.708, 0.122148
2023/07/11 05:02:03.066, True, 3.317, 0.121843
2023/07/11 05:02:03.570, True, 2.982, 0.120241
2023/07/11 05:02:04.065, True, 3.375, 0.122759
2023/07/11 05:02:04.569, True, 3.311, 0.122911
2023/07/11 05:02:05.074, True, 3.317, 0.123217
2023/07/11 05:02:05.570, True, 3.707, 0.121843
2023/07/11 05:02:06.074, True, 3.314, 0.121157
2023/07/11 05:02:06.578, True, 3.648, 0.122225
2023/07/11 05:02:07.074, True, 3.371, 0.122225
2023/07/11 05:02:07.578, True, 3.313, 0.120546
2023/07/11 05:02:08.082, True, 3.652, 0.120241
2023/07/11 05:02:08.578, True, 3.366, 0.122835
2023/07/11 05:02:09.082, True, 3.647, 0.120165
2023/07/11 05:02:09.586, True, 3.316, 0.120394
2023/07/11 05:02:10.082, True, 3.707, 0.121996
2023/07/11 05:02:10.586, True, 3.315, 0.120851
2023/07/11 05:02:11.081, True, 3.370, 0.122377
2023/07/11 05:02:11.586, True, 3.648, 0.122835
2023/07/11 05:02:12.090, True, 3.316, 0.122988
2023/07/11 05:02:12.594, True, 3.647, 0.121843
2023/07/11 05:02:13.090, True, 3.370, 0.122911
2023/07/11 05:02:13.594, True, 3.315, 0.119402
2023/07/11 05:02:14.098, True, 3.648, 0.121843
2023/07/11 05:02:14.594, True, 3.369, 0.121538
2023/07/11 05:02:15.098, True, 3.316, 0.121309
2023/07/11 05:02:15.602, True, 3.316, 0.120699
2023/07/11 05:02:16.098, True, 3.370, 0.120851
2023/07/11 05:02:16.602, True, 3.316, 0.121080
2023/07/11 05:02:17.106, True, 3.317, 0.120394
2023/07/11 05:02:17.602, True, 3.373, 0.121004
2023/07/11 05:02:18.106, True, 3.312, 0.121920
2023/07/11 05:02:18.610, True, 3.316, 0.122072
2023/07/11 05:02:19.106, True, 3.369, 0.121767
2023/07/11 05:02:19.610, True, 3.648, 0.121309
2023/07/11 05:02:20.114, True, 3.648, 0.122072
2023/07/11 05:02:20.610, True, 3.033, 0.121309
2023/07/11 05:02:21.114, True, 3.647, 0.121614
2023/07/11 05:02:21.618, True, 3.322, 0.121843
2023/07/11 05:02:22.114, True, 3.364, 0.120470
2023/07/11 05:02:22.618, True, 3.647, 0.122988
2023/07/11 05:02:23.121, True, 3.320, 0.121386
2023/07/11 05:02:23.618, True, 3.366, 0.120699
2023/07/11 05:02:24.122, True, 3.315, 0.118257
2023/07/11 05:02:24.625, True, 3.649, 0.121309
2023/07/11 05:02:25.122, True, 3.369, 0.123217
2023/07/11 05:02:25.626, True, 3.316, 0.121767
2023/07/11 05:02:26.130, True, 3.648, 0.121691
2023/07/11 05:02:26.626, True, 3.369, 0.121691
2023/07/11 05:02:27.130, True, 3.316, 0.121386
2023/07/11 05:02:27.634, True, 3.318, 0.120012
2023/07/11 05:02:28.129, True, 3.704, 0.121309
2023/07/11 05:02:28.634, True, 3.316, 0.123522
2023/07/11 05:02:29.138, True, 3.647, 0.121538
2023/07/11 05:02:29.634, True, 3.706, 0.122988
2023/07/11 05:02:30.138, True, 3.648, 0.120089
2023/07/11 05:02:30.642, True, 3.316, 0.122072
2023/07/11 05:02:31.145, True, 3.318, 0.122911
2023/07/11 05:02:31.641, True, 3.704, 0.121691
2023/07/11 05:02:32.146, True, 3.315, 0.122683
2023/07/11 05:02:32.650, True, 3.648, 0.119478
2023/07/11 05:02:33.146, True, 3.373, 0.120165
2023/07/11 05:02:33.650, True, 3.645, 0.120012
2023/07/11 05:02:34.146, True, 3.368, 0.123064
2023/07/11 05:02:34.650, True, 3.321, 0.120699
2023/07/11 05:02:35.154, True, 3.311, 0.119249
2023/07/11 05:02:35.650, True, 3.708, 0.121004
2023/07/11 05:02:36.154, True, 3.320, 0.120317
2023/07/11 05:02:36.658, True, 3.311, 0.120241
2023/07/11 05:02:37.162, True, 3.317, 0.118334
2023/07/11 05:02:37.657, True, 3.369, 0.123522
2023/07/11 05:02:38.162, True, 3.316, 0.122072
2023/07/11 05:02:38.666, True, 3.653, 0.121157
2023/07/11 05:02:39.162, True, 3.365, 0.118639
2023/07/11 05:02:39.665, True, 3.648, 0.119860
2023/07/11 05:02:40.170, True, 3.647, 0.122148
2023/07/11 05:02:40.666, True, 3.371, 0.121309
2023/07/11 05:02:41.170, True, 3.646, 0.122301
2023/07/11 05:02:41.666, True, 3.369, 0.119707
2023/07/11 05:02:42.170, True, 3.648, 0.118944
2023/07/11 05:02:42.674, True, 3.317, 0.121157
2023/07/11 05:02:43.170, True, 3.369, 0.121386
2023/07/11 05:02:43.674, True, 3.316, 0.121538
2023/07/11 05:02:44.178, True, 3.316, 0.121157
2023/07/11 05:02:44.674, True, 3.707, 0.120241
2023/07/11 05:02:45.178, True, 3.316, 0.121309
2023/07/11 05:02:45.681, True, 3.316, 0.121691
2023/07/11 05:02:46.178, True, 3.707, 0.121462
2023/07/11 05:02:46.682, True, 3.316, 0.121004
2023/07/11 05:02:47.186, True, 3.647, 0.123293
2023/07/11 05:02:47.682, True, 3.370, 0.120165
2023/07/11 05:02:48.186, True, 3.317, 0.121843
2023/07/11 05:02:48.690, True, 3.315, 0.120699
2023/07/11 05:02:49.186, True, 3.371, 0.120851
2023/07/11 05:02:49.690, True, 3.646, 0.118181
2023/07/11 05:02:50.194, True, 3.316, 0.120546
2023/07/11 05:02:50.690, True, 3.370, 0.121996
2023/07/11 05:02:51.194, True, 2.983, 0.120470
2023/07/11 05:02:51.697, True, 3.317, 0.120623
2023/07/11 05:02:52.193, True, 3.370, 0.120928
2023/07/11 05:02:52.698, True, 3.646, 0.120165
2023/07/11 05:02:53.202, True, 3.317, 0.121233
2023/07/11 05:02:53.698, True, 3.706, 0.120089
2023/07/11 05:02:54.202, True, 3.316, 0.120623
2023/07/11 05:02:54.705, True, 3.316, 0.120470
2023/07/11 05:02:55.202, True, 3.706, 0.119631
2023/07/11 05:02:55.706, True, 3.316, 0.121462
2023/07/11 05:02:56.209, True, 3.648, 0.119326
2023/07/11 05:02:56.706, True, 3.707, 0.119936
2023/07/11 05:02:57.210, True, 3.317, 0.122225
2023/07/11 05:02:57.706, True, 3.368, 0.120623
2023/07/11 05:02:58.209, True, 3.648, 0.120012
2023/07/11 05:02:58.714, True, 3.648, 0.119860
2023/07/11 05:02:59.217, True, 3.315, 0.121309
2023/07/11 05:02:59.714, True, 3.706, 0.120394
2023/07/11 05:03:00.218, True, 3.317, 0.121157
2023/07/11 05:03:00.722, True, 3.647, 0.121157
2023/07/11 05:03:01.218, True, 3.370, 0.119402
2023/07/11 05:03:01.722, True, 3.647, 0.121614
2023/07/11 05:03:02.218, True, 3.369, 0.121462
2023/07/11 05:03:02.722, True, 3.647, 0.122377
2023/07/11 05:03:03.226, True, 3.654, 0.121004
2023/07/11 05:03:03.722, True, 3.365, 0.121233
2023/07/11 05:03:04.226, True, 3.646, 0.120165
2023/07/11 05:03:04.729, True, 3.315, 0.120546
2023/07/11 05:03:05.226, True, 3.370, 0.121309
2023/07/11 05:03:05.730, True, 3.316, 0.121462
2023/07/11 05:03:06.234, True, 3.649, 0.122225
2023/07/11 05:03:06.738, True, 3.646, 0.121538
2023/07/11 05:03:07.234, True, 3.372, 0.117571
2023/07/11 05:03:07.738, True, 3.313, 0.121462
2023/07/11 05:03:08.233, True, 3.711, 0.122377
2023/07/11 05:03:08.738, True, 3.647, 0.120699
2023/07/11 05:03:09.242, True, 3.313, 0.119326
2023/07/11 05:03:09.738, True, 3.707, 0.121538
2023/07/11 05:03:10.242, True, 3.647, 0.119554
2023/07/11 05:03:10.745, True, 3.316, 0.119020
2023/07/11 05:03:11.241, True, 3.707, 0.122988
2023/07/11 05:03:11.745, True, 3.316, 0.121386
2023/07/11 05:03:12.250, True, 3.648, 0.120699
2023/07/11 05:03:12.746, True, 3.369, 0.123064
2023/07/11 05:03:13.250, True, 3.315, 0.122759
2023/07/11 05:03:13.753, True, 3.648, 0.119860
2023/07/11 05:03:14.250, True, 3.706, 0.120546
2023/07/11 05:03:14.754, True, 3.319, 0.119249
2023/07/11 05:03:15.257, True, 3.645, 0.122148
2023/07/11 05:03:15.753, True, 3.706, 0.121157
2023/07/11 05:03:16.258, True, 3.321, 0.121004
2023/07/11 05:03:16.754, True, 3.701, 0.120775
2023/07/11 05:03:17.258, True, 3.648, 0.121462
2023/07/11 05:03:17.761, True, 3.320, 0.119783
2023/07/11 05:03:18.265, True, 3.648, 0.121080
2023/07/11 05:03:18.762, True, 3.703, 0.120317
2023/07/11 05:03:19.266, True, 3.315, 0.121767
2023/07/11 05:03:19.762, True, 3.711, 0.121691
2023/07/11 05:03:20.266, True, 3.311, 0.120470
2023/07/11 05:03:20.769, True, 3.650, 0.122072
2023/07/11 05:03:21.266, True, 3.373, 0.120851
2023/07/11 05:03:21.770, True, 3.649, 0.120775
2023/07/11 05:03:22.274, True, 3.640, 0.121843
2023/07/11 05:03:22.770, True, 3.377, 0.118639
2023/07/11 05:03:23.274, True, 3.644, 0.120317
2023/07/11 05:03:23.778, True, 3.652, 0.121309
2023/07/11 05:03:24.282, True, 3.309, 0.118868
2023/07/11 05:03:24.778, True, 3.707, 0.118944
2023/07/11 05:03:25.281, True, 3.650, 0.120089
2023/07/11 05:03:25.778, True, 3.369, 0.121462
2023/07/11 05:03:26.281, True, 3.650, 0.119860
2023/07/11 05:03:26.786, True, 3.645, 0.120012
2023/07/11 05:03:27.282, True, 3.706, 0.120089
2023/07/11 05:03:27.786, True, 3.316, 0.119478
2023/07/11 05:03:28.290, True, 3.314, 0.121386
2023/07/11 05:03:28.785, True, 3.370, 0.118181
2023/07/11 05:03:29.290, True, 3.315, 0.120394
2023/07/11 05:03:29.794, True, 3.653, 0.119936
2023/07/11 05:03:30.289, True, 3.028, 0.120012
2023/07/11 05:03:30.794, True, 3.652, 0.119173
2023/07/11 05:03:31.298, True, 3.313, 0.119783
2023/07/11 05:03:31.794, True, 3.374, 0.120089
2023/07/11 05:03:32.298, True, 3.314, 0.120928
2023/07/11 05:03:32.802, True, 3.644, 0.120089
2023/07/11 05:03:33.297, True, 3.372, 0.119631
2023/07/11 05:03:33.802, True, 3.313, 0.121767
2023/07/11 05:03:34.306, True, 3.648, 0.121843
2023/07/11 05:03:34.802, True, 3.369, 0.120241
2023/07/11 05:03:35.305, True, 3.650, 0.121233
2023/07/11 05:03:35.810, True, 3.314, 0.119478
2023/07/11 05:03:36.306, True, 3.706, 0.121004
2023/07/11 05:03:36.810, True, 3.316, 0.120699
2023/07/11 05:03:37.314, True, 3.648, 0.120241
2023/07/11 05:03:37.810, True, 3.369, 0.119631
2023/07/11 05:03:38.314, True, 3.316, 0.120928
2023/07/11 05:03:38.818, True, 3.648, 0.120470
2023/07/11 05:03:39.314, True, 3.369, 0.119860
2023/07/11 05:03:39.818, True, 3.316, 0.118868
2023/07/11 05:03:40.322, True, 3.316, 0.119173
2023/07/11 05:03:40.818, True, 3.369, 0.120851
2023/07/11 05:03:41.322, True, 3.316, 0.117800
2023/07/11 05:03:41.826, True, 3.647, 0.122072
2023/07/11 05:03:42.321, True, 3.370, 0.119249
2023/07/11 05:03:42.826, True, 3.319, 0.118563
2023/07/11 05:03:43.330, True, 3.644, 0.119783
2023/07/11 05:03:43.825, True, 3.706, 0.117418
2023/07/11 05:03:44.330, True, 3.316, 0.120012
2023/07/11 05:03:44.834, True, 3.648, 0.118105
2023/07/11 05:03:45.329, True, 3.369, 0.122377
2023/07/11 05:03:45.834, True, 3.316, 0.120623
2023/07/11 05:03:46.330, True, 3.713, 0.120012
2023/07/11 05:03:46.833, True, 3.310, 0.119326
2023/07/11 05:03:47.338, True, 3.316, 0.120928
2023/07/11 05:03:47.834, True, 3.707, 0.118257
2023/07/11 05:03:48.338, True, 3.316, 0.122988
2023/07/11 05:03:48.842, True, 3.647, 0.119097
2023/07/11 05:03:49.338, True, 3.374, 0.120775
2023/07/11 05:03:49.842, True, 3.312, 0.118563
2023/07/11 05:03:50.346, True, 3.650, 0.119097
2023/07/11 05:03:50.842, True, 3.371, 0.119860
2023/07/11 05:03:51.346, True, 3.642, 0.118715
2023/07/11 05:03:51.850, True, 3.318, 0.119402
2023/07/11 05:03:52.346, True, 3.367, 0.122454
2023/07/11 05:03:52.850, True, 3.653, 0.120699
2023/07/11 05:03:53.353, True, 3.311, 0.120012
2023/07/11 05:03:53.850, True, 3.375, 0.118334
2023/07/11 05:03:54.354, True, 3.310, 0.120470
2023/07/11 05:03:54.858, True, 3.316, 0.119402
2023/07/11 05:03:55.354, True, 3.373, 0.120241
2023/07/11 05:03:55.858, True, 3.316, 0.119097
2023/07/11 05:03:56.362, True, 3.313, 0.120317
2023/07/11 05:03:56.858, True, 3.707, 0.121157
2023/07/11 05:03:57.362, True, 3.315, 0.120165
2023/07/11 05:03:57.866, True, 3.647, 0.120775
2023/07/11 05:03:58.362, True, 3.370, 0.119631
2023/07/11 05:03:58.866, True, 3.650, 0.119631
2023/07/11 05:03:59.370, True, 3.644, 0.122225
2023/07/11 05:03:59.866, True, 3.374, 0.120546
2023/07/11 05:04:00.370, True, 3.644, 0.119402
2023/07/11 05:04:00.874, True, 3.648, 0.120470
2023/07/11 05:04:01.370, True, 3.707, 0.120851
2023/07/11 05:04:01.874, True, 3.315, 0.122072
2023/07/11 05:04:02.378, True, 3.647, 0.122454
2023/07/11 05:04:02.874, True, 3.369, 0.121157
2023/07/11 05:04:03.378, True, 3.649, 0.120546
2023/07/11 05:04:03.881, True, 3.315, 0.120012
2023/07/11 05:04:04.377, True, 3.370, 0.120317
2023/07/11 05:04:04.882, True, 3.647, 0.120241
2023/07/11 05:04:05.386, True, 3.649, 0.120012
2023/07/11 05:04:05.882, True, 3.368, 0.120394
2023/07/11 05:04:06.386, True, 3.648, 0.118868
2023/07/11 05:04:06.882, True, 3.369, 0.120089
2023/07/11 05:04:07.386, True, 3.649, 0.119554
2023/07/11 05:04:07.889, True, 3.646, 0.120928
2023/07/11 05:04:08.386, True, 3.370, 0.120394
2023/07/11 05:04:08.889, True, 3.648, 0.121614
2023/07/11 05:04:09.394, True, 3.648, 0.119936
2023/07/11 05:04:09.889, True, 3.372, 0.118563
2023/07/11 05:04:10.394, True, 3.313, 0.118791
2023/07/11 05:04:10.898, True, 3.648, 0.120470